TimeEDT,TemperatureF,Dew PointF,Humidity,Sea Level PressureIn,VisibilityMPH,Wind Direction,Wind SpeedMPH,Gust SpeedMPH,PrecipitationIn,Events,Conditions,WindDirDegrees,DateUTC
12:15 AM,64.9,63.1,94,30.24,10.0,Calm,Calm,-,N/A,,Unknown,0,2013-06-23 04:15:00
12:35 AM,64.0,63.3,97,30.24,7.0,Calm,Calm,-,N/A,,Unknown,0,2013-06-23 04:35:00
12:55 AM,63.7,62.6,96,30.23,10.0,Calm,Calm,-,N/A,,Unknown,0,2013-06-23 04:55:00
1:15 AM,63.0,61.7,96,30.23,10.0,Calm,Calm,-,N/A,,Unknown,0,2013-06-23 05:15:00
1:35 AM,62.4,61.9,98,30.22,5.0,Calm,Calm,-,N/A,,Mist,0,2013-06-23 05:35:00
1:55 AM,62.1,61.2,97,30.22,10.0,Calm,Calm,-,N/A,,Unknown,0,2013-06-23 05:55:00
2:15 AM,61.7,60.6,96,30.21,10.0,Calm,Calm,-,N/A,,Unknown,0,2013-06-23 06:15:00
2:35 AM,61.2,60.8,99,30.21,7.0,Calm,Calm,-,N/A,,Unknown,0,2013-06-23 06:35:00
2:55 AM,60.8,59.9,97,30.20,10.0,Calm,Calm,-,N/A,,Unknown,0,2013-06-23 06:55:00
3:15 AM,60.1,59.4,97,30.19,7.0,Calm,Calm,-,N/A,,Unknown,0,2013-06-23 07:15:00
3:35 AM,59.9,59.4,98,30.18,5.0,Calm,Calm,-,N/A,,Mist,0,2013-06-23 07:35:00
3:55 AM,59.5,58.8,97,30.18,10.0,Calm,Calm,-,N/A,,Unknown,0,2013-06-23 07:55:00
4:15 AM,59.2,58.8,99,30.19,7.0,Calm,Calm,-,N/A,,Unknown,0,2013-06-23 08:15:00
4:35 AM,59.4,59.0,99,30.19,7.0,Calm,Calm,-,N/A,,Unknown,0,2013-06-23 08:35:00
4:55 AM,59.0,58.5,98,30.20,7.0,Calm,Calm,-,N/A,,Unknown,0,2013-06-23 08:55:00
5:15 AM,59.2,58.5,97,30.20,7.0,Calm,Calm,-,N/A,,Unknown,0,2013-06-23 09:15:00
5:35 AM,58.6,57.7,97,30.20,7.0,Calm,Calm,-,N/A,,Unknown,0,2013-06-23 09:35:00
5:55 AM,58.3,58.1,99,30.21,5.0,Calm,Calm,-,N/A,,Mist,0,2013-06-23 09:55:00
6:15 AM,58.6,58.1,98,30.22,5.0,Calm,Calm,-,N/A,,Mist,0,2013-06-23 10:15:00
6:35 AM,58.1,57.6,98,30.23,5.0,Calm,Calm,-,N/A,,Mist,0,2013-06-23 10:35:00
6:55 AM,58.5,58.1,99,30.24,5.0,Calm,Calm,-,N/A,,Mist,0,2013-06-23 10:55:00
7:15 AM,59.4,58.6,97,30.24,7.0,Calm,Calm,-,N/A,,Unknown,0,2013-06-23 11:15:00
7:35 AM,60.1,59.0,96,30.25,7.0,Calm,Calm,-,N/A,,Unknown,0,2013-06-23 11:35:00
7:55 AM,61.0,59.4,94,30.26,10.0,Calm,Calm,-,N/A,,Unknown,0,2013-06-23 11:55:00
8:15 AM,63.0,60.6,92,30.26,10.0,Calm,Calm,-,N/A,,Unknown,0,2013-06-23 12:15:00
8:35 AM,65.8,61.5,86,30.26,10.0,Calm,Calm,-,N/A,,Unknown,0,2013-06-23 12:35:00
8:55 AM,68.0,62.1,81,30.26,10.0,Calm,Calm,-,N/A,,Unknown,0,2013-06-23 12:55:00
9:15 AM,69.8,62.8,78,30.26,10.0,Calm,Calm,-,N/A,,Unknown,0,2013-06-23 13:15:00
9:35 AM,70.2,63.3,79,30.26,10.0,Calm,Calm,-,N/A,,Unknown,0,2013-06-23 13:35:00
9:55 AM,72.7,64.6,76,30.26,10.0,Calm,Calm,-,N/A,,Unknown,0,2013-06-23 13:55:00
10:15 AM,74.8,64.0,69,30.25,10.0,Calm,Calm,-,N/A,,Unknown,0,2013-06-23 14:15:00
10:35 AM,76.5,63.3,64,30.25,10.0,Calm,Calm,-,N/A,,Unknown,0,2013-06-23 14:35:00
10:55 AM,76.6,62.4,61,30.25,10.0,Calm,Calm,-,N/A,,Unknown,0,2013-06-23 14:55:00
11:15 AM,78.8,63.7,60,30.26,10.0,Calm,Calm,-,N/A,,Unknown,0,2013-06-23 15:15:00
11:35 AM,78.3,61.9,57,30.25,10.0,Calm,Calm,-,N/A,,Unknown,0,2013-06-23 15:35:00
11:55 AM,79.9,64.0,58,30.25,10.0,Calm,Calm,-,N/A,,Unknown,0,2013-06-23 15:55:00
12:15 PM,80.2,64.2,58,30.24,-9999.0,Calm,Calm,-,N/A,,Unknown,0,2013-06-23 16:15:00
12:35 PM,80.4,64.9,59,30.23,10.0,Calm,Calm,-,N/A,,Unknown,0,2013-06-23 16:35:00
12:55 PM,79.5,64.2,59,30.23,10.0,Calm,Calm,-,N/A,,Unknown,0,2013-06-23 16:55:00
1:15 PM,81.3,64.9,57,30.21,10.0,WNW,4.6,-,N/A,,Unknown,290,2013-06-23 17:15:00
1:35 PM,79.7,64.0,59,30.20,10.0,Calm,Calm,-,N/A,,Unknown,0,2013-06-23 17:35:00
1:55 PM,80.6,65.1,59,30.20,10.0,Calm,Calm,-,N/A,,Unknown,0,2013-06-23 17:55:00
2:15 PM,80.1,65.7,61,30.19,10.0,East,3.5,-,N/A,,Unknown,80,2013-06-23 18:15:00
2:35 PM,79.7,64.2,59,30.18,10.0,Calm,Calm,-,N/A,,Unknown,0,2013-06-23 18:35:00
2:55 PM,79.9,64.6,59,30.18,7.0,NW,3.5,-,N/A,,Unknown,310,2013-06-23 18:55:00
3:15 PM,79.9,64.9,60,30.18,10.0,Calm,Calm,-,N/A,,Unknown,0,2013-06-23 19:15:00
3:35 PM,80.2,64.6,59,30.17,10.0,WNW,6.9,-,N/A,,Unknown,300,2013-06-23 19:35:00
3:55 PM,82.2,64.4,55,30.17,10.0,WSW,9.2,-,N/A,,Unknown,250,2013-06-23 19:55:00
4:15 PM,80.4,63.7,57,30.17,10.0,West,5.8,-,N/A,,Unknown,280,2013-06-23 20:15:00
4:35 PM,81.9,65.1,57,30.16,10.0,West,6.9,-,N/A,,Unknown,270,2013-06-23 20:35:00
4:55 PM,82.0,67.5,61,30.17,10.0,SSW,3.5,-,N/A,,Unknown,210,2013-06-23 20:55:00
5:15 PM,82.2,65.8,57,30.16,10.0,Calm,Calm,-,N/A,,Unknown,0,2013-06-23 21:15:00
5:35 PM,80.2,66.7,63,30.16,10.0,WSW,3.5,-,N/A,,Unknown,240,2013-06-23 21:35:00
5:55 PM,78.8,68.7,71,30.16,10.0,Calm,Calm,-,N/A,,Unknown,0,2013-06-23 21:55:00
6:15 PM,80.4,68.2,66,30.16,10.0,East,4.6,-,N/A,,Unknown,90,2013-06-23 22:15:00
6:35 PM,76.6,65.3,68,30.16,10.0,East,8.1,-,N/A,,Unknown,90,2013-06-23 22:35:00
6:55 PM,74.1,67.5,80,30.18,4.0,ENE,3.5,-,0.02,Rain,Rain,70,2013-06-23 22:55:00
7:15 PM,71.4,67.8,88,30.17,10.0,East,3.5,-,0.01,Rain,Light Rain,90,2013-06-23 23:15:00
7:35 PM,70.7,68.9,94,30.18,10.0,Calm,Calm,-,0.03,Rain,Rain,0,2013-06-23 23:35:00
7:55 PM,70.5,68.2,92,30.18,2.0,SW,4.6,-,0.23,Rain,Heavy Rain,220,2013-06-23 23:55:00
8:15 PM,69.6,66.6,90,30.18,10.0,Calm,Calm,-,0.04,Rain,Light Rain,0,2013-06-24 00:15:00
8:35 PM,68.9,67.5,95,30.19,3.0,NNE,5.8,-,0.09,Rain,Rain,30,2013-06-24 00:35:00
8:55 PM,68.5,67.3,96,30.19,10.0,Calm,Calm,-,0.11,,Unknown,0,2013-06-24 00:55:00
9:15 PM,68.0,66.4,95,30.19,10.0,Calm,Calm,-,N/A,,Unknown,0,2013-06-24 01:15:00
9:35 PM,67.3,65.8,95,30.19,10.0,North,3.5,-,N/A,,Unknown,360,2013-06-24 01:35:00
9:55 PM,67.3,65.5,94,30.20,10.0,Calm,Calm,-,N/A,,Unknown,0,2013-06-24 01:55:00
10:15 PM,67.1,65.8,96,30.21,10.0,Calm,Calm,-,N/A,,Unknown,0,2013-06-24 02:15:00
10:35 PM,66.6,65.8,98,30.22,10.0,Calm,Calm,-,N/A,,Unknown,0,2013-06-24 02:35:00
10:55 PM,66.4,65.8,98,30.23,7.0,Calm,Calm,-,N/A,,Unknown,0,2013-06-24 02:55:00
11:15 PM,66.2,65.5,98,30.23,10.0,Calm,Calm,-,N/A,,Unknown,0,2013-06-24 03:15:00
11:35 PM,65.7,65.3,99,30.23,7.0,Calm,Calm,-,N/A,,Unknown,0,2013-06-24 03:35:00
11:55 PM,65.7,65.3,99,30.23,7.0,Calm,Calm,-,N/A,,Unknown,0,2013-06-24 03:55:00